EW6361 Weather Reports


time (UTC)temp
F
wind
direction
speed
knots
gust
knots
rain 1hr
in
rain 24hr
in
rain mn
in
humidity
%
barometer
mb
20260505124509 0 0.0 0.0 0.00 0.00 0.00 1010.3
20260505123004 0 0.0 0.0 0.00 0.00 0.00 1010.1
20260505121601 0 0.0 0.0 0.00 0.00 0.00 1010.2
20260505120108 0 0.0 0.0 0.00 0.00 0.00 1009.9
20260505114552 0 0.0 0.0 0.00 0.00 0.00 1009.9
20260505113036 0 0.0 0.0 0.00 0.00 0.00 1009.6
20260505111532 0 0.0 0.0 0.00 0.00 0.00 1009.4
20260505101524 0 0.0 0.0 0.00 0.00 0.00 1009.4
20260505100012 0 0.0 0.0 0.00 0.00 0.00 1009.3
20260505094517 0 0.0 0.0 0.00 0.00 0.00 1009.3
20260505093045 0 0.0 0.0 0.00 0.00 0.00 1009.2
20260505091541 0 0.0 0.0 0.00 0.00 0.00 1009.0
20260505090025 0 0.0 0.0 0.00 0.00 0.00 1009.0
20260505084533 0 0.0 0.0 0.00 0.00 0.00 1008.8
20260505083019 0 0.0 0.0 0.00 0.00 0.00 1008.8
20260505081512 0 0.0 0.0 0.00 0.00 0.00 1008.8
20260505080008 0 0.0 0.0 0.00 0.00 0.00 1008.8
20260505074504 0 0.0 0.0 0.00 0.00 0.00 1008.8
20260505073104 158 194 0.9 0.0 0.00 0.00 0.00 15 1008.8
20260505071556 135 232 0.9 0.0 0.00 0.00 0.00 20 1009.1
20260505070049 69 233 0.9 0.0 0.00 0.00 0.00 17 1009.2
20260505064535 67 234 0.9 0.0 0.00 0.00 0.00 21 1009.4
20260505063030 67 224 0.9 0.0 0.00 0.00 0.00 14 1009.8
20260505061534 67 216 0.9 0.0 0.00 0.00 0.00 3 1009.9
20260505060022 67 215 0.0 0.0 0.00 0.00 0.00 100 1010.0
20260505054517 68 215 0.9 0.0 0.00 0.00 0.00 5 1010.3
20260505053015 68 217 0.9 0.0 0.00 0.00 0.00 6 1010.4
20260505051513 67 213 0.9 0.0 0.00 0.00 0.00 100 1010.4
20260505050104 67 212 1.7 0.0 0.00 0.00 0.00 1 1010.4
20260505041531 67 215 0.9 0.0 0.00 0.00 0.00 10 1010.4
20260505040025 68 215 0.9 0.0 0.00 0.00 0.00 100 1010.6
20260505034520 68 214 1.7 0.0 0.00 0.00 0.00 100 1010.5
20260505033008 68 227 0.9 0.0 0.00 0.00 0.00 100 1010.5
20260505031505 68 226 0.9 0.0 0.00 0.00 0.00 100 1010.8
20260505030109 68 227 0.9 0.0 0.00 0.00 0.00 7 1010.5
20260505024604 69 212 1.7 0.0 0.00 0.00 0.00 100 1010.4
20260505023050 70 209 1.7 0.0 0.00 0.00 0.00 100 1010.4
20260505021536 70 214 0.9 0.0 0.00 0.00 0.00 100 1010.4
20260505020031 69 216 0.0 0.0 0.00 0.00 0.00 100 1010.5
20260505014533 70 186 0.0 0.0 0.00 0.00 0.00 100 1010.5
20260505013022 72 188 0.9 0.0 0.00 0.00 0.00 100 1010.7
20260505011518 71 196 0.0 0.0 0.00 0.00 0.00 100 1010.8
20260505010019 72 194 0.9 0.0 0.00 0.00 0.00 100 1010.8
20260505004510 71 186 1.7 0.0 0.00 0.00 0.00 10 1010.9
20260505003005 71 232 1.7 0.0 0.00 0.00 0.00 7 1010.7
20260505001549 72 181 2.6 0.0 0.00 0.00 0.00 4 1010.9
20260505000057 73 207 2.6 0.0 0.00 0.00 0.00 2 1010.9
20260504234547 73 195 1.7 0.0 0.00 0.00 0.00 30 1011.0
20260504233055 74 196 2.6 0.0 0.00 0.00 0.00 9 1010.9
20260504231533 72 189 4.3 0.0 0.00 0.00 0.00 40 1010.8
20260504230027 73 182 3.5 0.0 0.00 0.00 0.00 41 1010.9
20260504224523 73 194 3.5 0.0 0.00 0.00 0.00 41 1011.0
20260504223027 73 176 3.5 0.0 0.00 0.00 0.00 41 1011.0
20260504221556 73 200 4.3 0.0 0.00 0.00 0.00 42 1011.0
20260504220051 74 176 3.5 0.0 0.00 0.00 0.00 41 1010.9
20260504214531 74 188 4.3 0.0 0.00 0.00 0.00 41 1011.2
20260504213037 74 157 4.3 0.0 0.00 0.00 0.00 41 1011.0
20260504211509 74 194 4.3 0.0 0.00 0.00 0.00 39 1011.3
20260504210005 74 165 5.2 0.0 0.00 0.00 0.00 39 1011.4
20260504204600 74 183 3.5 0.0 0.00 0.00 0.00 39 1011.4
20260504203109 73 190 4.3 0.0 0.00 0.00 0.00 40 1011.4
20260504201556 73 106 4.3 0.0 0.00 0.00 0.00 39 1011.5
20260504200048 74 182 4.3 0.0 0.00 0.00 0.00 39 1011.8
20260504194543 74 98 3.5 0.0 0.00 0.00 0.00 39 1011.9
20260504193038 74 136 3.5 0.0 0.00 0.00 0.00 38 1012.0
20260504191524 74 171 2.6 0.0 0.00 0.00 0.00 38 1012.4
20260504190017 74 194 2.6 0.0 0.00 0.00 0.00 38 1012.5
20260504184512 74 259 1.7 0.0 0.00 0.00 0.00 38 1012.6
20260504183008 74 209 2.6 0.0 0.00 0.00 0.00 36 1013.0
20260504181511 74 148 1.7 0.0 0.00 0.00 0.00 36 1012.9
20260504180059 74 287 2.6 0.0 0.00 0.00 0.00 34 1013.0
20260504174609 73 167 3.5 0.0 0.00 0.00 0.00 36 1013.0
20260504173051 73 142 3.5 0.0 0.00 0.00 0.00 36 1013.3
20260504171530 74 157 3.5 0.0 0.00 0.00 0.00 34 1013.3
20260504160106 72 112 4.3 0.0 0.00 0.00 0.00 34 1013.8